Location: ???? ?????
(37.9132°N, 22.9869°E)
Time: 16:59:46
(UTC+00:00)

Ariane Rocket - Pass Details

Date: 04 August 2024
Orbit: 757 x 766 km, 98.5° (Epoch: 19 September)

Event Time Altitude Azimuth Distance (km) Brightness Sun altitude
Exits shadow 19:07:04 23° 97° (E) 1,565 4.1 -16.7°
Maximum altitude 19:08:37 27° 68° (ENE) 1,421 4.1 -17.0°
Drops below altitude 10° 19:12:49 10° 11° (N) 2,294 5.8 -17.6°
Sets 19:15:24 0° 360° (N) 3,223 6.8 -18.0°
